Location: Lecco
(45.8566°N, 9.3977°E)
Time: 12:40:26
(UTC+02:00)

Vanguard 2 Rocket - Pass Details

Date: 19 August 2020
Orbit: 554 x 3326 km, 32.9° (Epoch: 24 September)

Event Time Altitude Azimuth Distance (km) Brightness Sun altitude
Rises 18:31:19 0° 244° (WSW) 2,939 10.7 18.4°
Reaches altitude 10° 18:33:42 10° 228° (SW) 2,208 9.8 18.0°
Maximum altitude 18:37:43 24° 175° (S) 1,808 8.5 17.3°
Drops below altitude 10° 18:43:23 10° 126° (SE) 3,219 9.3 16.3°
Sets 18:47:44 0° 114° (ESE) 4,705 10.0 15.5°
